Date String (YYYY-MM-DD hh:mm:ss) UTC,Instrument flags,absolute air pressure of the measurement (hPa),sample flow rate (lpm),inlet stack bypass flow (lpm),air temperature of the measurement (°C),ambient temperature measured by the external sensor (°C),aerosol sample conditioner tube jacket temperature (°C),OPC LED temperature (°C),internal box temperature (°C),relative humidity of the measurement (%),span deviation,mass concentration of particles derived from Lorenz-Mie calculation of OPC scattering (μg/m³),mass concentration of particles derived from Lorenz-Mie calculation of OPC scattering (μg/m³),mass concentration of particles derived from Lorenz-Mie calculation of OPC scattering (μg/m³)
DateTimeUTC,F1_M11,P_M11,Q1_M11,Q2_M11,T1_M11,T2_M11,T3_M11,T4_M11,T5_M11,U1_M11,ZSPAN_M11,X0_M11,X2_M11,X1_M11
2023-06-02 03:00:00,SystemResetWarning,0826.8,5.00,000.00,029.7,028.3,000.0,038.0,031.4,24.8,0000.0,0006.33,0002.40,0001.54
2023-06-02 03:01:00,SystemResetWarning,0826.9,5.00,000.00,029.7,028.3,000.0,038.0,031.4,24.8,0000.0,0005.67,0002.43,0001.54
2023-06-02 03:02:00,SystemResetWarning,0826.9,5.00,000.00,029.7,028.3,000.0,038.0,031.4,24.7,0000.0,0005.58,0002.41,0001.53
2023-06-02 03:03:00,SystemResetWarning,0826.9,5.00,000.00,029.7,028.3,000.0,038.0,031.4,24.7,0000.0,0005.31,0002.31,0001.51
2023-06-02 03:04:00,SystemResetWarning,0826.9,5.00,000.00,029.8,028.4,000.0,038.0,031.4,24.7,0000.0,0005.73,0002.28,0001.50
2023-06-02 03:05:00,SystemResetWarning,0826.9,5.00,000.00,029.8,028.4,000.0,038.1,031.4,24.5,0000.0,0006.67,0002.28,0001.50
2023-06-02 03:06:00,SystemResetWarning,0826.9,5.00,000.00,029.8,028.4,000.0,038.1,031.5,24.4,0000.0,0007.11,0002.28,0001.50
2023-06-02 03:07:00,SystemResetWarning,0826.9,4.99,000.00,029.8,028.4,000.0,038.1,031.5,24.3,0000.0,0007.06,0002.30,0001.50
2023-06-02 03:08:00,SystemResetWarning,0826.9,4.99,000.00,029.8,028.4,000.0,038.1,031.5,24.4,0000.0,0007.44,0002.31,0001.50
2023-06-02 03:09:00,SystemResetWarning,0826.9,5.00,000.00,029.9,028.5,000.0,038.1,031.5,24.6,0000.0,0007.39,0002.33,0001.51
2023-06-02 03:10:00,SystemResetWarning,0826.9,5.01,000.00,029.9,028.5,000.0,038.1,031.5,24.5,0000.0,0007.43,0002.35,0001.52
2023-06-02 03:11:00,SystemResetWarning,0826.9,5.00,000.00,029.9,028.5,000.0,038.2,031.5,24.5,0000.0,0007.40,0002.33,0001.52
2023-06-02 03:12:00,SystemResetWarning,0826.9,4.99,000.00,029.9,028.5,000.0,038.2,031.5,24.5,0000.0,0007.22,0002.25,0001.50
2023-06-02 03:13:00,SystemResetWarning,0827.0,4.99,000.00,029.9,028.5,000.0,038.2,031.6,24.1,0000.0,0007.19,0002.24,0001.48
2023-06-02 03:14:00,SystemResetWarning,0827.0,5.00,000.00,029.9,028.5,000.0,038.2,031.6,23.9,0000.0,0007.22,0002.27,0001.47
2023-06-02 03:15:00,SystemResetWarning,0827.0,5.00,000.00,029.9,028.5,000.0,038.2,031.6,23.9,0000.0,0006.57,0002.22,0001.45
2023-06-02 03:16:00,SystemResetWarning,0826.9,5.00,000.00,029.9,028.5,000.0,038.2,031.6,23.8,0000.0,0005.65,0002.23,0001.45
2023-06-02 03:17:00,SystemResetWarning,0827.0,5.00,000.00,030.0,028.5,000.0,038.2,031.6,23.7,0000.0,0005.16,0002.23,0001.46
2023-06-02 03:18:00,SystemResetWarning,0827.0,5.00,000.00,030.0,028.6,000.0,038.3,031.6,23.8,0000.0,0005.48,0002.19,0001.46
2023-06-02 03:19:00,SystemResetWarning,0827.0,4.99,000.00,030.0,028.6,000.0,038.3,031.6,23.4,0000.0,0004.72,0002.18,0001.46
2023-06-02 03:20:00,SystemResetWarning,0827.0,5.00,000.00,030.0,028.6,000.0,038.3,031.7,23.5,0000.0,0004.80,0002.13,0001.43
2023-06-02 03:21:00,SystemResetWarning,0827.0,5.00,000.00,030.0,028.6,000.0,038.3,031.7,23.4,0000.0,0005.06,0002.07,0001.40
2023-06-02 03:22:00,SystemResetWarning,0827.0,4.99,000.00,030.0,028.6,000.0,038.3,031.7,23.4,0000.0,0004.95,0002.04,0001.38
2023-06-02 03:23:00,SystemResetWarning,0827.0,5.00,000.00,030.0,028.0,000.0,038.3,031.6,22.9,0000.0,0004.94,0002.03,0001.36
2023-06-02 03:24:00,SystemResetWarning,0827.0,5.00,000.00,030.0,026.1,000.0,038.2,031.3,22.9,0000.0,0004.93,0002.02,0001.35
2023-06-02 03:25:00,SystemResetWarning,0827.0,5.00,000.00,029.9,025.3,000.0,038.1,031.1,23.1,0000.0,0005.00,0002.04,0001.34
2023-06-02 03:26:00,SystemResetWarning,0827.0,5.00,000.00,029.7,025.4,000.0,038.1,031.0,23.3,0000.0,0005.02,0002.05,0001.34
2023-06-02 03:27:00,SystemResetWarning,0827.0,5.01,000.00,029.7,025.7,000.0,038.1,030.9,23.2,0000.0,0004.98,0002.01,0001.31
2023-06-02 03:28:00,SystemResetWarning,0827.1,5.01,000.00,029.6,026.1,000.0,038.1,031.0,23.3,0000.0,0004.93,0001.96,0001.29
2023-06-02 03:29:00,SystemResetWarning,0827.1,5.00,000.00,029.6,026.4,000.0,038.0,031.0,23.5,0000.0,0005.26,0001.97,0001.27
2023-06-02 03:30:00,SystemResetWarning,0827.1,5.00,000.00,029.6,026.8,000.0,038.0,031.0,23.7,0000.0,0005.39,0001.93,0001.26
2023-06-02 03:31:00,SystemResetWarning,0827.1,5.00,000.00,029.6,027.0,000.0,038.0,031.1,23.8,0000.0,0004.98,0001.92,0001.27
2023-06-02 03:32:00,SystemResetWarning,0827.1,5.00,000.00,029.6,027.3,000.0,038.0,031.1,23.7,0000.0,0004.59,0001.95,0001.28
2023-06-02 03:33:00,SystemResetWarning,0827.1,5.00,000.00,029.6,027.4,000.0,038.0,031.1,23.4,0000.0,0004.64,0001.98,0001.28
2023-06-02 03:34:00,SystemResetWarning,0827.1,5.00,000.00,029.6,027.6,000.0,038.0,031.1,23.5,0000.0,0004.66,0001.99,0001.28
2023-06-02 03:35:00,SystemResetWarning,0827.2,4.99,000.00,029.6,027.7,000.0,038.0,031.2,23.5,0000.0,0004.64,0001.98,0001.28
2023-06-02 03:36:00,SystemResetWarning,0827.2,4.99,000.00,029.6,027.8,000.0,038.0,031.2,23.3,0000.0,0004.64,0002.00,0001.28
2023-06-02 03:37:00,SystemResetWarning,0827.1,5.01,000.00,029.6,027.9,000.0,038.0,031.2,23.4,0000.0,0005.19,0002.01,0001.29
2023-06-02 03:38:00,SystemResetWarning,0827.1,5.01,000.00,029.6,028.0,000.0,038.0,031.2,23.4,0000.0,0005.64,0002.02,0001.29
2023-06-02 03:39:00,SystemResetWarning,0827.2,5.01,000.00,029.6,028.0,000.0,038.0,031.3,23.4,0000.0,0005.78,0002.08,0001.29
2023-06-02 03:40:00,SystemResetWarning,0827.2,4.99,000.00,029.7,028.1,000.0,038.0,031.3,23.4,0000.0,0005.01,0002.08,0001.28
2023-06-02 03:41:00,SystemResetWarning,0827.2,4.99,000.00,029.7,028.1,000.0,038.0,031.3,23.4,0000.0,0004.39,0002.08,0001.28
2023-06-02 03:42:00,SystemResetWarning,0827.3,5.00,000.00,029.7,028.2,000.0,038.0,031.3,23.4,0000.0,0004.51,0002.10,0001.27
2023-06-02 03:43:00,SystemResetWarning,0827.3,5.01,000.00,029.7,028.2,000.0,038.0,031.3,23.4,0000.0,0004.50,0002.08,0001.25
2023-06-02 03:44:00,SystemResetWarning,0827.3,5.01,000.00,029.7,028.2,000.0,038.0,031.4,23.4,0000.0,0004.41,0002.03,0001.25
2023-06-02 03:45:00,SystemResetWarning,0827.3,4.99,000.00,029.7,028.3,000.0,038.0,031.4,23.6,0000.0,0004.40,0002.00,0001.25
2023-06-02 03:46:00,SystemResetWarning,0827.2,4.99,000.00,029.8,028.3,000.0,038.0,031.4,23.8,0000.0,0004.46,0001.98,0001.24
2023-06-02 03:47:00,SystemResetWarning,0827.2,5.02,000.00,029.8,028.3,000.0,038.1,031.4,23.7,0000.0,0004.78,0001.93,0001.25
2023-06-02 03:48:00,SystemResetWarning,0827.3,5.01,000.00,029.8,028.3,000.0,038.1,031.4,23.9,0000.0,0004.35,0001.92,0001.24
2023-06-02 03:49:00,SystemResetWarning,0827.3,4.99,000.00,029.8,028.3,000.0,038.1,031.4,24.0,0000.0,0004.00,0001.97,0001.27
2023-06-02 03:50:00,SystemResetWarning,0827.2,4.99,000.00,029.8,028.4,000.0,038.1,031.5,23.7,0000.0,0003.91,0001.91,0001.28
2023-06-02 03:51:00,SystemResetWarning,0827.2,4.99,000.00,029.8,028.4,000.0,038.1,031.5,24.2,0000.0,0004.04,0001.94,0001.30
2023-06-02 03:52:00,SystemResetWarning,0827.2,5.00,000.00,029.8,028.4,000.0,038.1,031.5,24.2,0000.0,0004.25,0002.04,0001.33
2023-06-02 03:53:00,SystemResetWarning,0827.2,5.01,000.00,029.9,028.4,000.0,038.1,031.5,24.1,0000.0,0004.27,0002.06,0001.36
2023-06-02 03:54:00,SystemResetWarning,0827.2,5.01,000.00,029.9,028.4,000.0,038.1,031.5,24.2,0000.0,0005.33,0002.10,0001.38
2023-06-02 03:55:00,SystemResetWarning,0827.2,5.01,000.00,029.9,028.4,000.0,038.2,031.5,24.4,0000.0,0005.91,0002.12,0001.40
2023-06-02 03:56:00,SystemResetWarning,0827.1,4.99,000.00,029.9,028.5,000.0,038.2,031.5,24.6,0000.0,0006.03,0002.19,0001.45
2023-06-02 03:57:00,SystemResetWarning,0827.2,5.00,000.00,029.9,028.5,000.0,038.2,031.5,24.6,0000.0,0006.00,0002.24,0001.50
2023-06-02 03:58:00,SystemResetWarning,0827.2,4.99,000.00,029.9,028.5,000.0,038.2,031.6,24.7,0000.0,0005.67,0002.27,0001.55
2023-06-02 03:59:00,SystemResetWarning,0827.2,5.00,000.00,029.9,028.5,000.0,038.2,031.6,24.7,0000.0,0005.53,0002.30,0001.59
